Tracking 31027 objects as of 19-Jul-2025
HD Live streaming from Space Station
objects crossing your sky now

THOR ABLESTAR DEB

Track THOR ABLESTAR DEB now!
10-day predictions


NORAD ID: 13513
Int'l Code: 1961-015KW
Perigee: 872.5 km
Apogee: 1,006.9 km
Inclination: 65.7 °
Period: 103.7 minutes
Semi major axis: 7310 km
RCS: 0.0483 m2 (small)
Launch date: June 29, 1961
Source: United States (US)
Launch site: AIR FORCE EASTERN TEST RANGE (AFETR)

Note: This is SATELLITE DEBRIS
Your satellite tracking list
Your tracking list is empty




NASA's NSSDC Master Catalog

Two Line Element Set (TLE):
1 13513U 61015KW  25199.77638986  .00000654  00000-0  59026-3 0  9996
2 13513  65.6795 321.9369 0091944   3.6718 146.0259 13.88877679272842
Source of the keplerian elements: AFSPC